DIERAUER Weather Reports


Display with metric or nautical units.
time (UTC)temp
F
wind
direction
speed
MPH
gust
MPH
rain 1hr
in
rain 24hr
in
rain mn
in
humidity
%
barometer
mb
20260507032501 46 309 0.0 0.0 0.00 0.38 0.38 73 1014.5
20260507032001 47 309 0.0 0.0 0.00 0.38 0.38 73 1014.5
20260507031518 47 309 0.0 0.0 0.00 0.38 0.38 74 1014.5
20260507031012 47 309 0.0 0.0 0.00 0.38 0.38 73 1014.5
20260507030508 47 309 0.0 0.0 0.00 0.38 0.38 73 1014.5
20260507030013 47 309 0.0 0.0 0.00 0.39 0.38 73 1014.5
20260507025506 47 309 0.0 0.0 0.00 0.39 0.38 74 1014.5
20260507025006 47 309 0.0 0.0 0.00 0.40 0.38 74 1014.5
20260507024506 47 309 0.0 0.0 0.00 0.40 0.38 74 1014.6
20260507024005 47 309 0.0 0.0 0.00 0.42 0.38 73 1014.5
20260507023507 48 309 0.0 0.0 0.00 0.43 0.38 73 1014.5
20260507023025 48 309 0.0 0.0 0.00 0.43 0.38 73 1014.6
20260507022502 47 309 0.0 0.0 0.00 0.44 0.38 73 1014.5
20260507022010 47 309 0.0 0.0 0.00 0.45 0.38 73 1014.4
20260507021510 47 309 0.0 0.0 0.00 0.45 0.38 73 1014.4
20260507021003 48 309 0.0 0.0 0.00 0.45 0.38 73 1014.4
20260507020503 48 309 0.0 2.0 0.00 0.45 0.38 71 1014.3
20260507020014 48 309 0.0 2.0 0.00 0.45 0.38 72 1014.1
20260507015504 48 309 0.0 2.0 0.00 0.46 0.38 79 1014.1
20260507015002 48 309 0.0 2.0 0.00 0.47 0.38 74 1014.1
20260507014522 49 309 0.0 2.0 0.00 0.47 0.38 72 1013.9
20260507014005 49 309 0.0 2.0 0.00 0.48 0.38 72 1013.7
20260507013507 49 309 0.0 0.0 0.00 0.48 0.38 72 1013.7
20260507013021 48 309 0.0 0.0 0.00 0.49 0.38 75 1013.8
20260507012508 48 309 0.0 0.0 0.00 0.50 0.38 75 1013.9
20260507012006 48 309 0.0 0.0 0.00 0.52 0.38 72 1013.9
20260507011517 48 309 0.0 0.0 0.00 0.52 0.38 72 1013.9
20260507011005 49 309 0.0 0.0 0.00 0.52 0.38 71 1013.9
20260507010507 49 309 0.0 0.0 0.00 0.54 0.38 68 1013.9
20260507010010 49 309 0.0 0.0 0.00 0.54 0.38 69 1013.9
20260507005506 49 309 0.0 2.0 0.00 0.54 0.38 68 1013.7
20260507005002 50 309 0.0 2.0 0.00 0.55 0.38 66 1013.8
20260507004531 50 309 0.0 2.0 0.00 0.55 0.38 66 1013.9
20260507004006 50 309 0.0 2.0 0.00 0.55 0.38 65 1013.7
20260507003505 50 309 0.0 2.0 0.00 0.56 0.38 66 1013.5
20260507003021 50 317 0.0 2.0 0.00 0.56 0.38 66 1013.4
20260507002509 51 329 0.0 3.0 0.00 0.56 0.38 66 1013.3
20260507002006 51 318 1.0 3.0 0.00 0.56 0.38 66 1013.2
20260507001526 51 338 0.0 4.0 0.00 0.56 0.38 67 1013.2
20260507001008 51 324 2.0 4.0 0.00 0.56 0.38 64 1013.2
20260507000505 52 327 2.0 5.0 0.00 0.56 0.38 64 1013.0
20260507000025 52 338 3.0 5.0 0.00 0.57 0.38 63 1013.1
20260506235507 52 336 3.0 5.0 0.00 0.57 0.38 63 1013.1
20260506235003 52 327 3.0 6.0 0.00 0.57 0.38 62 1013.1
20260506234520 53 320 3.0 9.0 0.00 0.57 0.38 62 1013.0
20260506234004 53 327 5.0 10.0 0.00 0.57 0.38 60 1013.0
20260506233509 54 345 5.0 10.0 0.00 0.57 0.38 60 1012.9
20260506233014 54 313 6.0 10.0 0.00 0.57 0.38 59 1012.9
20260506232505 54 344 6.0 11.0 0.00 0.57 0.38 60 1013.0
20260506232006 54 332 7.0 11.0 0.00 0.57 0.38 59 1013.0
20260506231532 54 328 6.0 10.0 0.00 0.57 0.38 60 1013.1
20260506231003 54 347 6.0 10.0 0.00 0.57 0.38 59 1013.0
20260506230506 54 335 6.0 9.0 0.00 0.57 0.38 61 1013.0
20260506230027 54 313 3.0 8.0 0.00 0.57 0.38 61 1013.0
20260506225505 54 346 5.0 10.0 0.00 0.57 0.38 59 1013.1
20260506225006 54 318 3.0 10.0 0.00 0.57 0.38 60 1013.2
20260506224528 54 325 6.0 9.0 0.00 0.57 0.38 58 1013.1
20260506224007 54 339 4.0 10.0 0.00 0.57 0.38 58 1013.2
20260506223503 55 313 6.0 10.0 0.00 0.57 0.38 59 1013.2
20260506223027 55 351 4.0 10.0 0.00 0.57 0.38 59 1013.2
20260506222504 55 325 5.0 9.0 0.00 0.57 0.38 57 1013.3
20260506222010 55 231 3.0 8.0 0.00 0.57 0.38 59 1013.5
20260506221521 55 317 4.0 8.0 0.00 0.57 0.38 59 1013.4
20260506221010 55 331 4.0 8.0 0.00 0.57 0.38 59 1013.5
20260506220509 55 331 3.0 9.0 0.00 0.57 0.38 62 1013.4
20260506220024 55 340 2.0 11.0 0.00 0.57 0.38 60 1013.4
20260506215509 55 319 5.0 11.0 0.00 0.58 0.38 61 1013.3
20260506215011 55 24 1.0 9.0 0.00 0.58 0.38 61 1013.3
20260506214528 55 315 4.0 10.0 0.00 0.58 0.38 61 1013.2
20260506214008 55 339 4.0 10.0 0.00 0.58 0.38 61 1013.0
20260506213507 55 333 5.0 10.0 0.00 0.58 0.38 61 1012.9
20260506213029 55 333 6.0 10.0 0.00 0.58 0.38 60 1012.9
20260506212507 56 319 4.0 9.0 0.00 0.58 0.38 60 1012.9
20260506212009 56 334 2.0 9.0 0.00 0.58 0.38 60 1012.9
20260506211529 56 323 5.0 14.0 0.00 0.60 0.38 61 1012.8
20260506211008 56 331 4.0 14.0 0.00 0.60 0.38 60 1012.7
20260506210507 55 336 7.0 11.0 0.00 0.61 0.38 61 1012.6
20260506210025 55 344 6.0 13.0 0.00 0.62 0.38 59 1012.7
20260506205511 55 317 7.0 13.0 0.00 0.63 0.38 61 1012.7
20260506205004 55 360 9.0 13.0 0.00 0.64 0.38 59 1012.8
20260506204526 55 334 7.0 13.0 0.00 0.66 0.38 60 1012.8
20260506204008 55 342 8.0 11.0 0.00 0.67 0.38 61 1012.8
20260506203511 55 309 6.0 12.0 0.00 0.68 0.38 60 1012.8
20260506203028 56 319 5.0 13.0 0.00 0.69 0.38 60 1012.7
20260506202507 56 323 8.0 13.0 0.00 0.69 0.38 60 1012.7
20260506202011 57 336 10.0 14.0 0.00 0.69 0.38 58 1012.7
20260506201532 57 344 10.0 14.0 0.00 0.69 0.38 58 1012.5
20260506201010 57 319 7.0 13.0 0.00 0.69 0.38 57 1012.7
20260506200505 57 334 5.0 11.0 0.00 0.69 0.38 56 1012.7
20260506200024 57 327 7.0 16.0 0.00 0.69 0.38 57 1012.5
20260506195505 58 317 10.0 16.0 0.00 0.69 0.38 58 1012.5
20260506195005 58 346 9.0 15.0 0.00 0.69 0.38 58 1012.4
20260506194528 59 312 9.0 17.0 0.00 0.69 0.38 57 1012.4
20260506194008 59 344 11.0 17.0 0.00 0.69 0.38 55 1012.4
20260506193508 59 338 3.0 11.0 0.00 0.69 0.38 56 1012.3
20260506193027 60 316 5.0 11.0 0.00 0.69 0.38 58 1012.5
20260506192512 60 340 5.0 11.0 0.00 0.69 0.38 61 1012.5
20260506192008 59 340 5.0 12.0 0.00 0.69 0.38 58 1012.5
20260506191526 59 329 5.0 13.0 0.00 0.69 0.38 61 1012.5
20260506191012 59 329 8.0 13.0 0.00 0.69 0.38 58 1012.5
20260506190507 59 308 5.0 13.0 0.00 0.69 0.38 59 1012.4
20260506190020 60 344 7.0 15.0 0.00 0.69 0.38 56 1012.2
20260506185510 60 319 10.0 15.0 0.00 0.69 0.38 56 1012.1
20260506185014 60 343 10.0 14.0 0.00 0.69 0.38 60 1012.3
20260506184523 60 348 4.0 15.0 0.00 0.69 0.38 58 1012.3
20260506184014 59 322 8.0 15.0 0.00 0.69 0.38 59 1012.3
20260506183510 59 313 9.0 16.0 0.00 0.69 0.38 61 1012.4
20260506183029 59 348 10.0 16.0 0.00 0.69 0.38 59 1012.4
20260506182507 60 352 11.0 16.0 0.00 0.69 0.38 59 1012.3
20260506182012 59 315 5.0 15.0 0.00 0.69 0.38 59 1012.3
20260506181528 59 340 9.0 15.0 0.00 0.69 0.38 60 1012.4
20260506181010 59 332 9.0 12.0 0.00 0.69 0.38 61 1012.4
20260506180509 59 311 7.0 12.0 0.00 0.69 0.38 67 1012.4
20260506180030 59 12 8.0 14.0 0.00 0.69 0.38 62 1012.5
20260506175507 58 344 6.0 14.0 0.00 0.69 0.38 59 1012.5
20260506175007 58 323 9.0 14.0 0.00 0.69 0.38 61 1012.6
20260506174523 58 331 8.0 15.0 0.00 0.69 0.38 63 1012.5
20260506174006 58 310 10.0 15.0 0.00 0.69 0.38 62 1012.6
20260506173505 58 329 5.0 12.0 0.00 0.69 0.38 62 1012.7
20260506173024 58 344 10.0 16.0 0.00 0.69 0.38 63 1012.6
20260506172506 57 341 4.0 16.0 0.00 0.69 0.38 63 1012.6
20260506172009 58 360 7.0 13.0 0.00 0.69 0.38 63 1012.6
20260506171530 57 328 8.0 12.0 0.00 0.69 0.38 63 1012.6
20260506171010 57 360 4.0 12.0 0.00 0.69 0.38 65 1012.6
20260506170510 57 302 5.0 15.0 0.00 0.69 0.38 67 1012.8
20260506170024 57 315 5.0 15.0 0.00 0.69 0.38 61 1012.8
20260506165512 57 360 9.0 17.0 0.00 0.69 0.38 64 1012.8
20260506165011 56 9 10.0 17.0 0.00 0.69 0.38 64 1012.8
20260506164506 57 351 8.0 13.0 0.00 0.69 0.38 68 1012.6
20260506164004 57 339 9.0 15.0 0.00 0.69 0.38 67 1012.7
20260506163502 56 305 8.0 15.0 0.00 0.69 0.38 64 1012.5
20260506163002 56 346 9.0 13.0 0.00 0.69 0.38 64 1012.4
20260506162502 56 14 6.0 13.0 0.00 0.69 0.38 65 1012.4
20260506162002 56 312 5.0 12.0 0.00 0.69 0.38 65 1012.3
20260506161505 56 316 8.0 12.0 0.00 0.69 0.38 67 1012.4
20260506161002 56 360 8.0 12.0 0.00 0.69 0.38 65 1012.7
20260506160503 55 302 5.0 14.0 0.00 0.69 0.38 67 1012.9
20260506160004 56 346 5.0 14.0 0.00 0.69 0.38 71 1012.9
20260506155502 55 316 5.0 11.0 0.00 0.69 0.38 67 1012.9
20260506155003 55 315 7.0 11.0 0.00 0.69 0.38 70 1012.8
20260506154504 55 332 8.0 13.0 0.00 0.69 0.38 70 1012.8
20260506154003 55 344 4.0 18.0 0.00 0.69 0.38 70 1012.6
20260506153502 55 344 9.0 18.0 0.00 0.69 0.38 74 1012.4
20260506153003 54 340 11.0 18.0 0.00 0.69 0.38 70 1012.2
20260506152504 53 338 9.0 16.0 0.00 0.69 0.38 71 1012.1
20260506152003 54 335 10.0 16.0 0.00 0.69 0.38 69 1012.0
20260506151505 54 5 10.0 16.0 0.00 0.69 0.38 72 1011.9
20260506151002 53 339 11.0 16.0 0.00 0.69 0.38 72 1011.9
20260506150503 53 347 12.0 15.0 0.00 0.69 0.38 74 1011.8
20260506150004 53 323 9.0 16.0 0.00 0.69 0.38 74 1011.8
20260506145503 53 348 10.0 16.0 0.00 0.69 0.38 76 1011.8
20260506145002 53 334 8.0 14.0 0.00 0.69 0.38 77 1011.7
20260506144503 52 343 6.0 12.0 0.00 0.69 0.38 80 1011.6
20260506144002 51 347 8.0 12.0 0.00 0.69 0.38 81 1011.7
20260506143503 50 352 9.0 12.0 0.00 0.69 0.38 80 1011.8
20260506143007 50 333 8.0 12.0 0.00 0.69 0.38 81 1011.7
20260506142502 50 344 7.0 12.0 0.00 0.69 0.38 84 1011.6
20260506142006 49 360 8.0 13.0 0.00 0.69 0.38 81 1011.5
20260506141507 49 323 6.0 13.0 0.00 0.69 0.38 83 1011.5
20260506141006 49 328 9.0 13.0 0.00 0.69 0.38 84 1011.4
20260506140503 49 342 9.0 12.0 0.00 0.69 0.38 82 1011.5
20260506140004 49 336 7.0 12.0 0.00 0.69 0.38 84 1011.5
20260506135503 48 325 6.0 10.0 0.00 0.69 0.38 82 1011.5
20260506135006 49 352 7.0 11.0 0.00 0.69 0.38 82 1011.5
20260506134504 48 352 6.0 13.0 0.00 0.69 0.38 84 1011.5
20260506134003 48 326 8.0 13.0 0.00 0.69 0.38 84 1011.3
20260506133503 48 352 8.0 13.0 0.00 0.69 0.38 84 1011.1
20260506133003 48 352 11.0 13.0 0.00 0.69 0.38 84 1011.1
20260506132502 48 352 8.0 13.0 0.00 0.69 0.38 86 1011.0
20260506132005 48 331 10.0 13.0 0.00 0.69 0.38 86 1010.9
20260506131506 47 351 9.0 13.0 0.00 0.69 0.38 86 1010.9
20260506131007 47 352 8.0 13.0 0.00 0.69 0.38 87 1010.8
20260506130504 47 335 8.0 13.0 0.00 0.69 0.38 87 1010.6
20260506130011 47 347 8.0 12.0 0.00 0.69 0.38 87 1010.8
20260506125503 47 317 8.0 11.0 0.00 0.69 0.38 87 1010.7
20260506125005 47 325 8.0 13.0 0.00 0.69 0.38 87 1010.8
20260506124507 46 311 9.0 13.0 0.00 0.69 0.38 87 1010.7
20260506124003 47 339 9.0 12.0 0.00 0.69 0.38 88 1010.8
20260506123508 46 326 8.0 12.0 0.00 0.69 0.38 89 1010.7
20260506123006 46 330 6.0 12.0 0.00 0.69 0.38 89 1010.6
20260506122502 46 328 6.0 10.0 0.00 0.69 0.38 90 1010.3
20260506122011 46 338 7.0 10.0 0.00 0.69 0.38 90 1010.3
20260506121510 46 316 6.0 10.0 0.00 0.69 0.38 91 1010.1
20260506121003 45 352 6.0 9.0 0.00 0.69 0.38 91 1010.0
20260506120504 45 334 5.0 9.0 0.00 0.69 0.38 91 1009.8
20260506120008 45 331 6.0 9.0 0.00 0.69 0.38 91 1009.7
20260506115504 45 336 5.0 9.0 0.00 0.69 0.38 92 1009.4
20260506115003 45 343 5.0 10.0 0.00 0.69 0.38 92 1009.3
20260506114509 44 351 4.0 10.0 0.00 0.69 0.38 92 1009.3
20260506114006 44 336 6.0 10.0 0.00 0.69 0.38 92 1009.4
20260506113507 44 329 5.0 11.0 0.00 0.69 0.38 92 1009.4
20260506113016 44 331 7.0 11.0 0.00 0.69 0.38 92 1009.2
20260506112506 44 322 6.0 10.0 0.00 0.69 0.38 92 1009.4
20260506112006 44 306 6.0 10.0 0.00 0.69 0.38 92 1009.2
20260506111509 44 320 7.0 10.0 0.00 0.69 0.38 93 1009.1
20260506111006 44 323 6.0 9.0 0.00 0.69 0.38 93 1009.2
20260506110504 44 280 4.0 10.0 0.00 0.69 0.38 93 1009.2
20260506110011 44 322 3.0 10.0 0.00 0.69 0.38 93 1009.2
20260506105504 44 336 4.0 10.0 0.00 0.69 0.38 92 1009.0
20260506105003 44 322 6.0 11.0 0.00 0.69 0.38 93 1008.9
20260506104508 44 322 4.0 14.0 0.00 0.69 0.38 93 1008.6
20260506104002 44 323 7.0 14.0 0.00 0.69 0.38 93 1008.2
20260506103508 44 330 8.0 12.0 0.00 0.69 0.38 93 1008.3
20260506103011 44 343 9.0 13.0 0.00 0.69 0.38 93 1008.1
20260506102504 44 331 9.0 13.0 0.00 0.69 0.38 93 1008.0
20260506102004 44 345 9.0 12.0 0.00 0.69 0.38 93 1008.0
20260506101512 44 352 8.0 11.0 0.00 0.69 0.38 93 1008.0
20260506101006 44 352 9.0 11.0 0.00 0.69 0.38 92 1007.9
20260506100505 44 352 7.0 11.0 0.00 0.69 0.38 93 1007.9
20260506100011 44 352 8.0 14.0 0.00 0.69 0.38 93 1007.8
20260506095505 44 9 10.0 14.0 0.00 0.69 0.38 93 1007.8
20260506095002 44 348 10.0 14.0 0.00 0.69 0.38 93 1007.7
20260506094516 44 360 6.0 13.0 0.00 0.69 0.38 93 1007.7
20260506094005 44 345 9.0 13.0 0.00 0.69 0.38 93 1007.6
20260506093506 44 324 9.0 13.0 0.00 0.69 0.38 93 1007.5
20260506093014 44 331 9.0 15.0 0.00 0.69 0.38 93 1007.5
20260506092505 44 352 11.0 15.0 0.01 0.69 0.38 93 1007.5
20260506092003 44 343 10.0 14.0 0.01 0.69 0.38 93 1007.5
20260506091517 44 352 9.0 15.0 0.01 0.69 0.38 93 1007.7
20260506091003 44 336 9.0 16.0 0.02 0.69 0.38 93 1007.8
20260506090503 44 352 11.0 16.0 0.03 0.69 0.38 93 1007.8
20260506090018 44 339 12.0 18.0 0.04 0.69 0.38 93 1007.7
20260506085508 44 352 13.0 19.0 0.05 0.69 0.38 94 1007.6
20260506085003 44 346 15.0 19.0 0.05 0.69 0.38 93 1007.5
20260506084515 44 360 11.0 17.0 0.06 0.69 0.38 94 1007.4
20260506084005 44 350 12.0 17.0 0.07 0.69 0.38 94 1007.6
20260506083506 45 339 12.0 17.0 0.08 0.69 0.38 94 1007.5
20260506083017 45 326 12.0 17.0 0.08 0.69 0.38 94 1007.3
20260506082505 45 334 12.0 17.0 0.08 0.68 0.37 94 1007.4
20260506082005 45 329 10.0 14.0 0.09 0.68 0.37 94 1007.2
20260506081516 45 329 11.0 14.0 0.09 0.68 0.37 94 1007.2
20260506081006 45 330 8.0 12.0 0.08 0.67 0.36 94 1007.5
20260506080503 45 343 6.0 13.0 0.07 0.66 0.35 94 1007.7
20260506073506 45 341 11.0 17.0 0.02 0.61 0.30 93 1007.1
20260506073018 46 340 12.0 17.0 0.03 0.61 0.30 93 1007.0
20260506072508 46 342 9.0 15.0 0.03 0.60 0.29 93 1007.1
20260506072006 46 325 11.0 16.0 0.03 0.58 0.28 93 1007.1
20260506071516 46 340 10.0 16.0 0.04 0.58 0.28 93 1006.9
20260506071005 46 346 11.0 17.0 0.05 0.58 0.28 93 1006.7
20260506070505 46 352 13.0 17.0 0.06 0.58 0.28 93 1006.5
20260506062507 47 352 14.0 19.0 0.17 0.57 0.26 94 1006.7
20260506062010 47 339 12.0 20.0 0.19 0.56 0.25 94 1006.8
20260506061540 47 360 15.0 20.0 0.19 0.55 0.24 94 1006.9
20260506061003 47 348 15.0 20.0 0.18 0.54 0.23 94 1006.9
20260506060505 47 352 14.0 21.0 0.19 0.52 0.22 94 1006.9
20260506051004 50 346 11.0 14.0 0.05 0.36 0.05 94 1006.7
20260506050506 50 25 8.0 11.0 0.03 0.34 0.03 94 1006.6
20260506045008 51 10 9.0 11.0 0.02 0.33 0.02 93 1006.8
20260506044523 51 11 8.0 11.0 0.02 0.33 0.02 93 1006.8
20260506044007 51 352 7.0 10.0 0.01 0.32 0.01 93 1006.8
20260506043508 52 352 6.0 11.0 0.00 0.31 0.00 94 1006.8
20260506043035 52 11 7.0 11.0 0.00 0.31 0.00 93 1006.6
20260506042506 52 360 5.0 9.0 0.00 0.31 0.00 93 1006.5
20260506042009 52 352 5.0 10.0 0.00 0.31 0.00 93 1006.5
20260506041524 52 360 8.0 10.0 0.00 0.31 0.00 93 1006.6
20260506041008 53 22 7.0 9.0 0.00 0.31 0.00 93 1006.5
20260506040509 53 360 7.0 10.0 0.00 0.31 0.00 93 1006.6
20260506040020 54 340 6.0 10.0 0.01 0.31 0.00 93 1006.6
20260506035505 54 317 4.0 7.0 0.01 0.31 0.31 93 1006.7
20260506035016 55 350 3.0 9.0 0.02 0.31 0.31 93 1006.7
20260506034519 55 348 4.0 9.0 0.02 0.31 0.31 92 1006.6
20260506034007 57 313 2.0 5.0 0.04 0.31 0.31 94 1006.6
20260506033507 57 236 1.0 5.0 0.05 0.31 0.31 93 1006.6
20260506033022 57 198 4.0 8.0 0.05 0.31 0.31 93 1006.6